| time (UTC) | temp F | wind direction | speed knots | gust knots | rain 1hr in | rain 24hr in | rain mn in | humidity % | barometer mb |
| 20260506155034 | 59 | 238 | 0.9 | 3.5 | 0.00 | 0.00 | 0.00 | 76 | 1019.8 |
| 20260506154520 | 59 | 237 | 0.0 | 5.2 | 0.00 | 0.00 | 0.00 | 76 | 1019.8 |
| 20260506154008 | 59 | 226 | 0.9 | 3.5 | 0.00 | 0.00 | 0.00 | 76 | 1019.8 |
| 20260506153558 | 59 | 226 | 0.9 | 3.5 | 0.00 | 0.00 | 0.00 | 76 | 1019.8 |
| 20260506153053 | 59 | 214 | 1.7 | 3.5 | 0.00 | 0.00 | 0.00 | 76 | 1019.7 |
| 20260506152535 | 58 | 199 | 0.9 | 2.6 | 0.00 | 0.00 | 0.00 | 77 | 1019.7 |
| 20260506152023 | 58 | 194 | 0.9 | 1.7 | 0.00 | 0.00 | 0.00 | 77 | 1019.7 |
| 20260506151512 | 58 | 193 | 0.0 | 6.1 | 0.00 | 0.00 | 0.00 | 77 | 1019.7 |
| 20260506151050 | 58 | 193 | 2.6 | 6.1 | 0.00 | 0.00 | 0.00 | 77 | 1019.6 |
| 20260506150541 | 58 | 242 | 0.9 | 3.5 | 0.00 | 0.00 | 0.00 | 77 | 1019.6 |
| 20260506150026 | 58 | 224 | 0.9 | 3.5 | 0.00 | 0.00 | 0.00 | 77 | 1019.6 |
| 20260506145514 | 58 | 224 | 0.9 | 3.5 | 0.00 | 0.00 | 0.00 | 78 | 1019.6 |
| 20260506145002 | 58 | 210 | 0.0 | 2.6 | 0.00 | 0.00 | 0.00 | 78 | 1019.6 |
| 20260506144552 | 58 | 210 | 0.0 | 2.6 | 0.00 | 0.00 | 0.00 | 78 | 1019.6 |
| 20260506144040 | 57 | 210 | 0.0 | 3.5 | 0.00 | 0.00 | 0.00 | 78 | 1019.6 |
| 20260506143529 | 57 | 210 | 0.0 | 3.5 | 0.00 | 0.00 | 0.00 | 78 | 1019.5 |
| 20260506143024 | 57 | 210 | 0.9 | 3.5 | 0.00 | 0.00 | 0.00 | 79 | 1019.5 |
| 20260506142509 | 57 | 210 | 0.9 | 3.5 | 0.00 | 0.00 | 0.00 | 79 | 1019.4 |
| 20260506142059 | 57 | 211 | 0.0 | 2.6 | 0.00 | 0.00 | 0.00 | 79 | 1019.3 |
| 20260506141543 | 57 | 211 | 0.9 | 3.5 | 0.00 | 0.00 | 0.00 | 79 | 1019.4 |
| 20260506141022 | 57 | 211 | 1.7 | 3.5 | 0.00 | 0.00 | 0.00 | 79 | 1019.2 |
| 20260506140508 | 57 | 212 | 0.9 | 2.6 | 0.00 | 0.00 | 0.00 | 79 | 1019.2 |
| 20260506140059 | 57 | 212 | 0.0 | 3.5 | 0.00 | 0.00 | 0.00 | 79 | 1019.1 |
| 20260506135548 | 57 | 212 | 0.9 | 3.5 | 0.00 | 0.00 | 0.00 | 79 | 1019.1 |
| 20260506135036 | 57 | 211 | 0.0 | 2.6 | 0.00 | 0.00 | 0.00 | 79 | 1019.0 |
| 20260506134523 | 57 | 211 | 0.0 | 2.6 | 0.00 | 0.00 | 0.00 | 79 | 1019.0 |
| 20260506134011 | 57 | 211 | 0.0 | 3.5 | 0.00 | 0.00 | 0.00 | 79 | 1018.9 |
| 20260506133602 | 57 | 212 | 0.0 | 3.5 | 0.00 | 0.00 | 0.00 | 79 | 1018.9 |
| 20260506133050 | 56 | 212 | 0.9 | 3.5 | 0.00 | 0.00 | 0.00 | 79 | 1019.0 |
| 20260506132541 | 56 | 212 | 0.9 | 2.6 | 0.00 | 0.00 | 0.00 | 79 | 1019.0 |
| 20260506132029 | 56 | 213 | 0.0 | 1.7 | 0.00 | 0.00 | 0.00 | 80 | 1019.0 |
| 20260506131518 | 56 | 213 | 0.0 | 0.0 | 0.00 | 0.00 | 0.00 | 79 | 1019.0 |
| 20260506131053 | 56 | 213 | 0.0 | 0.0 | 0.00 | 0.00 | 0.00 | 79 | 1018.9 |
| 20260506130542 | 57 | 213 | 0.0 | 1.7 | 0.00 | 0.00 | 0.00 | 79 | 1018.9 |
| 20260506130030 | 57 | 213 | 0.0 | 1.7 | 0.00 | 0.00 | 0.00 | 79 | 1018.9 |
| 20260506125519 | 57 | 213 | 0.0 | 0.9 | 0.00 | 0.00 | 0.00 | 79 | 1018.8 |
| 20260506125009 | 57 | 213 | 0.0 | 0.0 | 0.00 | 0.00 | 0.00 | 79 | 1018.8 |
| 20260506124601 | 57 | 213 | 0.0 | 0.9 | 0.00 | 0.00 | 0.00 | 79 | 1018.8 |
| 20260506124043 | 57 | 213 | 0.0 | 1.7 | 0.00 | 0.00 | 0.00 | 79 | 1018.7 |
| 20260506123532 | 57 | 213 | 0.0 | 1.7 | 0.00 | 0.00 | 0.00 | 79 | 1018.7 |
| 20260506123020 | 57 | 213 | 0.0 | 2.6 | 0.00 | 0.00 | 0.00 | 79 | 1018.7 |
| 20260506122508 | 57 | 213 | 0.0 | 2.6 | 0.00 | 0.00 | 0.00 | 79 | 1018.6 |
| 20260506122058 | 57 | 213 | 0.0 | 3.5 | 0.00 | 0.00 | 0.00 | 79 | 1018.6 |
| 20260506121547 | 57 | 213 | 0.9 | 3.5 | 0.00 | 0.00 | 0.00 | 79 | 1018.6 |
| 20260506121024 | 57 | 214 | 0.0 | 1.7 | 0.00 | 0.00 | 0.00 | 79 | 1018.5 |
| 20260506120512 | 57 | 214 | 0.0 | 0.0 | 0.00 | 0.00 | 0.00 | 79 | 1018.5 |
| 20260506120110 | 57 | 214 | 0.0 | 0.0 | 0.00 | 0.00 | 0.00 | 79 | 1018.5 |
| 20260506115550 | 57 | 214 | 0.0 | 0.9 | 0.00 | 0.00 | 0.00 | 79 | 1018.5 |
| 20260506115037 | 57 | 214 | 0.0 | 1.7 | 0.00 | 0.00 | 0.00 | 78 | 1018.5 |
| 20260506114533 | 57 | 214 | 0.9 | 1.7 | 0.00 | 0.00 | 0.00 | 78 | 1018.5 |
| 20260506114013 | 57 | 214 | 0.0 | 1.7 | 0.00 | 0.00 | 0.00 | 78 | 1018.5 |
| 20260506113502 | 57 | 214 | 0.0 | 2.6 | 0.00 | 0.00 | 0.00 | 78 | 1018.4 |
| 20260506113056 | 57 | 214 | 0.9 | 2.6 | 0.00 | 0.00 | 0.00 | 78 | 1018.4 |
| 20260506112540 | 57 | 214 | 0.0 | 2.6 | 0.00 | 0.00 | 0.00 | 78 | 1018.3 |
| 20260506112028 | 57 | 214 | 0.0 | 2.6 | 0.00 | 0.00 | 0.00 | 78 | 1018.3 |
| 20260506111516 | 57 | 214 | 0.0 | 2.6 | 0.00 | 0.00 | 0.00 | 78 | 1018.2 |
| 20260506111058 | 57 | 214 | 0.0 | 2.6 | 0.00 | 0.00 | 0.00 | 78 | 1018.2 |
| 20260506110543 | 57 | 214 | 0.9 | 3.5 | 0.00 | 0.00 | 0.00 | 78 | 1018.1 |
| 20260506110034 | 57 | 215 | 0.0 | 4.3 | 0.00 | 0.00 | 0.00 | 78 | 1018.0 |
| 20260506105518 | 57 | 211 | 1.7 | 4.3 | 0.00 | 0.00 | 0.00 | 77 | 1018.0 |
| 20260506105010 | 57 | 212 | 0.9 | 4.3 | 0.00 | 0.00 | 0.00 | 77 | 1018.0 |
| 20260506104559 | 57 | 212 | 0.9 | 4.3 | 0.00 | 0.00 | 0.00 | 77 | 1018.0 |
| 20260506104045 | 57 | 216 | 0.0 | 1.7 | 0.00 | 0.00 | 0.00 | 77 | 1017.9 |
| 20260506103533 | 57 | 216 | 0.0 | 2.6 | 0.00 | 0.00 | 0.00 | 77 | 1017.9 |
| 20260506103022 | 57 | 216 | 0.0 | 2.6 | 0.00 | 0.00 | 0.00 | 77 | 1017.8 |
| 20260506102508 | 57 | 216 | 0.0 | 4.3 | 0.00 | 0.00 | 0.00 | 77 | 1017.9 |
| 20260506102059 | 57 | 216 | 0.9 | 4.3 | 0.00 | 0.00 | 0.00 | 77 | 1017.8 |
| 20260506101556 | 57 | 219 | 1.7 | 3.5 | 0.00 | 0.00 | 0.00 | 77 | 1017.7 |
| 20260506101023 | 57 | 220 | 0.0 | 2.6 | 0.00 | 0.00 | 0.00 | 77 | 1017.7 |
| 20260506100511 | 57 | 221 | 0.0 | 2.6 | 0.00 | 0.00 | 0.00 | 77 | 1017.8 |
| 20260506100120 | 57 | 220 | 0.0 | 1.7 | 0.00 | 0.00 | 0.00 | 77 | 1017.8 |
| 20260506095551 | 57 | 220 | 0.0 | 3.5 | 0.00 | 0.00 | 0.00 | 77 | 1017.7 |
| 20260506095038 | 57 | 220 | 0.9 | 3.5 | 0.00 | 0.00 | 0.00 | 77 | 1017.7 |
| 20260506094525 | 57 | 220 | 1.7 | 3.5 | 0.00 | 0.00 | 0.00 | 77 | 1017.7 |
| 20260506094015 | 57 | 220 | 0.0 | 2.6 | 0.00 | 0.00 | 0.00 | 76 | 1017.7 |
| 20260506093602 | 57 | 220 | 0.9 | 2.6 | 0.00 | 0.00 | 0.00 | 77 | 1017.7 |
| 20260506093051 | 57 | 221 | 0.0 | 3.5 | 0.00 | 0.00 | 0.00 | 76 | 1017.7 |
| 20260506092538 | 58 | 222 | 0.0 | 3.5 | 0.00 | 0.00 | 0.00 | 76 | 1017.7 |
| 20260506092029 | 58 | 222 | 0.0 | 3.5 | 0.00 | 0.00 | 0.00 | 76 | 1017.7 |
| 20260506091515 | 58 | 219 | 0.0 | 2.6 | 0.00 | 0.00 | 0.00 | 76 | 1017.7 |
| 20260506091053 | 58 | 219 | 0.9 | 3.5 | 0.00 | 0.00 | 0.00 | 76 | 1017.7 |
| 20260506090541 | 58 | 221 | 0.9 | 3.5 | 0.00 | 0.00 | 0.00 | 76 | 1017.7 |
| 20260506090029 | 58 | 222 | 0.9 | 3.5 | 0.00 | 0.00 | 0.00 | 76 | 1017.7 |
| 20260506085517 | 58 | 222 | 0.9 | 3.5 | 0.00 | 0.01 | 0.00 | 75 | 1017.8 |
| 20260506085005 | 58 | 223 | 0.9 | 3.5 | 0.00 | 0.01 | 0.00 | 75 | 1017.7 |
| 20260506084621 | 58 | 226 | 0.9 | 4.3 | 0.00 | 0.01 | 0.00 | 75 | 1017.7 |
| 20260506084043 | 58 | 243 | 0.9 | 5.2 | 0.00 | 0.01 | 0.00 | 75 | 1017.7 |
| 20260506083531 | 58 | 236 | 0.9 | 3.5 | 0.00 | 0.01 | 0.00 | 76 | 1017.7 |
| 20260506083018 | 58 | 230 | 0.9 | 3.5 | 0.00 | 0.01 | 0.00 | 76 | 1017.8 |
| 20260506082508 | 58 | 222 | 0.9 | 3.5 | 0.00 | 0.01 | 0.00 | 76 | 1017.8 |
| 20260506082057 | 58 | 220 | 0.9 | 3.5 | 0.00 | 0.01 | 0.00 | 76 | 1017.8 |
| 20260506081552 | 58 | 229 | 0.9 | 3.5 | 0.00 | 0.01 | 0.00 | 76 | 1017.8 |
| 20260506081022 | 58 | 231 | 1.7 | 4.3 | 0.00 | 0.01 | 0.00 | 76 | 1017.8 |
| 20260506080509 | 58 | 214 | 0.9 | 4.3 | 0.00 | 0.01 | 0.00 | 76 | 1017.7 |
| 20260506073051 | 58 | 231 | 0.9 | 5.2 | 0.00 | 0.03 | 0.00 | 76 | 1017.5 |
| 20260506072537 | 58 | 253 | 1.7 | 3.5 | 0.00 | 0.03 | 0.00 | 76 | 1017.5 |
| 20260506072025 | 58 | 258 | 0.0 | 3.5 | 0.00 | 0.03 | 0.00 | 76 | 1017.4 |
| 20260506071513 | 58 | 256 | 0.9 | 3.5 | 0.00 | 0.03 | 0.00 | 76 | 1017.3 |
| 20260506071052 | 58 | 249 | 0.9 | 3.5 | 0.00 | 0.03 | 0.00 | 76 | 1017.3 |
| 20260506070540 | 58 | 244 | 0.0 | 3.5 | 0.00 | 0.03 | 0.00 | 77 | 1017.3 |
| 20260506062506 | 58 | 260 | 2.6 | 7.8 | 0.00 | 0.10 | 0.03 | 76 | 1016.9 |
| 20260506062056 | 58 | 236 | 0.9 | 7.0 | 0.00 | 0.10 | 0.03 | 76 | 1016.8 |
| 20260506061543 | 58 | 255 | 2.6 | 8.7 | 0.00 | 0.10 | 0.03 | 76 | 1016.8 |
| 20260506061020 | 58 | 301 | 3.5 | 7.8 | 0.00 | 0.10 | 0.03 | 76 | 1016.7 |
| 20260506060508 | 59 | 226 | 1.7 | 5.2 | 0.00 | 0.10 | 0.03 | 76 | 1016.7 |
| 20260506051052 | 59 | 278 | 2.6 | 7.8 | 0.00 | 0.13 | 0.03 | 76 | 1016.3 |
| 20260506050541 | 59 | 247 | 2.6 | 7.8 | 0.00 | 0.13 | 0.03 | 75 | 1016.3 |
| 20260506045003 | 60 | 264 | 3.5 | 7.8 | 0.00 | 0.18 | 0.03 | 75 | 1016.2 |
| 20260506044702 | 60 | 266 | 1.7 | 6.1 | 0.00 | 0.18 | 0.03 | 74 | 1016.1 |
| 20260506044041 | 60 | 216 | 0.9 | 6.1 | 0.00 | 0.18 | 0.03 | 74 | 1016.0 |
| 20260506043529 | 60 | 246 | 0.9 | 8.7 | 0.00 | 0.18 | 0.03 | 74 | 1015.8 |
| 20260506043017 | 60 | 246 | 3.5 | 8.7 | 0.00 | 0.18 | 0.03 | 73 | 1015.7 |
| 20260506042505 | 60 | 241 | 2.6 | 8.7 | 0.00 | 0.18 | 0.03 | 73 | 1015.6 |
| 20260506042055 | 61 | 228 | 2.6 | 8.7 | 0.00 | 0.18 | 0.03 | 73 | 1015.6 |
| 20260506041556 | 61 | 267 | 3.5 | 7.8 | 0.00 | 0.18 | 0.03 | 73 | 1015.7 |
| 20260506041026 | 61 | 213 | 2.6 | 6.1 | 0.00 | 0.18 | 0.03 | 73 | 1015.6 |
| 20260506040508 | 61 | 228 | 2.6 | 5.2 | 0.00 | 0.18 | 0.03 | 72 | 1015.6 |
| 20260506040058 | 61 | 258 | 2.6 | 7.0 | 0.00 | 0.18 | 0.03 | 72 | 1015.6 |
| 20260506035546 | 61 | 277 | 1.7 | 8.7 | 0.00 | 0.25 | 0.03 | 72 | 1015.6 |
| 20260506035034 | 62 | 258 | 2.6 | 9.6 | 0.00 | 0.25 | 0.03 | 72 | 1015.6 |
| 20260506034543 | 62 | 260 | 3.5 | 9.6 | 0.00 | 0.25 | 0.03 | 71 | 1015.4 |
| 20260506034009 | 62 | 265 | 2.6 | 7.0 | 0.00 | 0.25 | 0.03 | 71 | 1015.4 |
| 20260506033600 | 62 | 239 | 1.7 | 9.6 | 0.00 | 0.25 | 0.03 | 72 | 1015.3 |
| 20260506033051 | 63 | 228 | 2.6 | 9.6 | 0.00 | 0.25 | 0.03 | 72 | 1015.2 |
| 20260506032537 | 63 | 241 | 1.7 | 4.3 | 0.00 | 0.25 | 0.03 | 72 | 1015.1 |
| 20260506032025 | 63 | 227 | 0.0 | 2.6 | 0.00 | 0.25 | 0.03 | 72 | 1015.0 |
| 20260506031512 | 63 | 227 | 0.9 | 2.6 | 0.00 | 0.25 | 0.03 | 72 | 1014.9 |
| 20260506031054 | 63 | 227 | 0.9 | 2.6 | 0.00 | 0.25 | 0.03 | 72 | 1014.8 |
| 20260506030544 | 63 | 228 | 0.0 | 1.7 | 0.00 | 0.25 | 0.03 | 71 | 1014.9 |
| 20260506030028 | 63 | 228 | 0.0 | 2.6 | 0.00 | 0.25 | 0.03 | 71 | 1014.8 |
| 20260506025516 | 63 | 228 | 0.9 | 3.5 | 0.00 | 0.25 | 0.03 | 71 | 1014.8 |
| 20260506025004 | 63 | 228 | 0.9 | 3.5 | 0.00 | 0.25 | 0.03 | 71 | 1014.7 |
| 20260506024555 | 63 | 230 | 0.9 | 2.6 | 0.00 | 0.25 | 0.03 | 70 | 1014.6 |
| 20260506024043 | 64 | 230 | 0.0 | 4.3 | 0.00 | 0.25 | 0.03 | 70 | 1014.4 |
| 20260506023531 | 64 | 228 | 1.7 | 4.3 | 0.00 | 0.25 | 0.03 | 69 | 1014.3 |
| 20260506023018 | 64 | 230 | 1.7 | 4.3 | 0.00 | 0.25 | 0.03 | 70 | 1014.2 |
| 20260506022507 | 64 | 225 | 0.9 | 3.5 | 0.00 | 0.25 | 0.03 | 70 | 1014.3 |
| 20260506022057 | 64 | 220 | 0.0 | 4.3 | 0.00 | 0.25 | 0.03 | 70 | 1014.3 |
| 20260506021545 | 64 | 207 | 0.9 | 4.3 | 0.00 | 0.25 | 0.03 | 69 | 1014.3 |
| 20260506021021 | 64 | 209 | 0.9 | 5.2 | 0.00 | 0.25 | 0.03 | 69 | 1014.3 |
| 20260506020509 | 64 | 204 | 1.7 | 5.2 | 0.00 | 0.25 | 0.03 | 70 | 1014.3 |
| 20260506020100 | 64 | 204 | 0.9 | 5.2 | 0.00 | 0.25 | 0.03 | 69 | 1014.3 |
| 20260506015548 | 65 | 191 | 0.9 | 5.2 | 0.00 | 0.26 | 0.03 | 69 | 1014.4 |
| 20260506015039 | 65 | 204 | 0.9 | 6.1 | 0.00 | 0.26 | 0.03 | 68 | 1014.3 |
| 20260506014527 | 65 | 199 | 0.9 | 6.1 | 0.00 | 0.26 | 0.03 | 68 | 1014.2 |
| 20260506014011 | 65 | 179 | 1.7 | 6.1 | 0.00 | 0.26 | 0.03 | 67 | 1014.2 |
| 20260506013601 | 65 | 174 | 1.7 | 6.1 | 0.00 | 0.26 | 0.03 | 66 | 1014.2 |
| 20260506013049 | 65 | 193 | 0.9 | 5.2 | 0.00 | 0.26 | 0.03 | 65 | 1014.3 |
| 20260506012537 | 65 | 193 | 1.7 | 5.2 | 0.00 | 0.26 | 0.03 | 65 | 1014.2 |
| 20260506012026 | 65 | 200 | 0.9 | 5.2 | 0.00 | 0.26 | 0.03 | 66 | 1014.1 |
| 20260506011516 | 64 | 185 | 0.0 | 6.1 | 0.00 | 0.26 | 0.03 | 67 | 1014.1 |
| 20260506011052 | 64 | 215 | 1.7 | 5.2 | 0.00 | 0.26 | 0.03 | 67 | 1014.0 |
| 20260506010540 | 64 | 223 | 0.9 | 4.3 | 0.00 | 0.26 | 0.03 | 68 | 1014.0 |
| 20260506010029 | 64 | 223 | 0.0 | 4.3 | 0.00 | 0.26 | 0.03 | 68 | 1014.0 |
| 20260506005516 | 64 | 211 | 1.7 | 4.3 | 0.00 | 0.27 | 0.03 | 69 | 1013.9 |
| 20260506005003 | 64 | 195 | 1.7 | 7.8 | 0.00 | 0.27 | 0.03 | 69 | 1014.0 |
| 20260506004624 | 64 | 198 | 1.7 | 7.8 | 0.00 | 0.27 | 0.03 | 68 | 1014.0 |
| 20260506004042 | 64 | 185 | 2.6 | 7.0 | 0.00 | 0.27 | 0.03 | 68 | 1014.0 |
| 20260506003534 | 64 | 190 | 1.7 | 5.2 | 0.00 | 0.27 | 0.03 | 68 | 1014.0 |
| 20260506003033 | 64 | 194 | 1.7 | 5.2 | 0.00 | 0.27 | 0.03 | 69 | 1014.0 |
| 20260506002511 | 64 | 192 | 1.7 | 5.2 | 0.00 | 0.27 | 0.03 | 68 | 1014.0 |
| 20260506002057 | 64 | 212 | 0.9 | 5.2 | 0.00 | 0.27 | 0.03 | 68 | 1014.0 |
| 20260506001549 | 64 | 216 | 2.6 | 5.2 | 0.00 | 0.27 | 0.03 | 67 | 1013.9 |
| 20260506001022 | 64 | 216 | 1.7 | 5.2 | 0.00 | 0.27 | 0.03 | 68 | 1014.0 |
| 20260506000510 | 65 | 204 | 0.9 | 6.1 | 0.00 | 0.27 | 0.03 | 68 | 1014.0 |
| 20260506000101 | 64 | 191 | 0.0 | 6.1 | 0.00 | 0.27 | 0.03 | 68 | 1013.9 |
| 20260505235548 | 65 | 214 | 0.9 | 5.2 | 0.00 | 0.28 | 0.03 | 68 | 1013.9 |
| 20260505235036 | 65 | 209 | 1.7 | 5.2 | 0.00 | 0.28 | 0.03 | 68 | 1013.9 |
| 20260505234534 | 65 | 186 | 0.9 | 5.2 | 0.00 | 0.28 | 0.03 | 68 | 1013.9 |
| 20260505234018 | 65 | 215 | 0.9 | 5.2 | 0.00 | 0.28 | 0.03 | 68 | 1013.8 |
| 20260505233601 | 65 | 199 | 0.9 | 5.2 | 0.00 | 0.28 | 0.03 | 68 | 1013.9 |
| 20260505233050 | 65 | 233 | 1.7 | 5.2 | 0.00 | 0.28 | 0.03 | 68 | 1013.9 |
| 20260505232538 | 64 | 210 | 0.0 | 5.2 | 0.00 | 0.28 | 0.03 | 69 | 1013.9 |
| 20260505232028 | 64 | 208 | 0.9 | 6.1 | 0.00 | 0.28 | 0.03 | 68 | 1013.8 |
| 20260505231516 | 64 | 188 | 1.7 | 6.1 | 0.00 | 0.28 | 0.03 | 68 | 1013.8 |
| 20260505231055 | 64 | 233 | 0.9 | 4.3 | 0.00 | 0.28 | 0.03 | 68 | 1013.8 |
| 20260505230540 | 64 | 197 | 1.7 | 5.2 | 0.00 | 0.28 | 0.03 | 68 | 1013.9 |
| 20260505230038 | 65 | 208 | 2.6 | 5.2 | 0.00 | 0.28 | 0.03 | 68 | 1013.9 |
| 20260505225521 | 65 | 251 | 1.7 | 3.5 | 0.00 | 0.28 | 0.03 | 67 | 1013.9 |
| 20260505225007 | 66 | 258 | 0.0 | 5.2 | 0.00 | 0.28 | 0.03 | 67 | 1014.0 |
| 20260505224556 | 66 | 213 | 0.9 | 5.2 | 0.00 | 0.28 | 0.03 | 67 | 1014.0 |
| 20260505224043 | 66 | 217 | 1.7 | 5.2 | 0.00 | 0.28 | 0.03 | 66 | 1014.0 |
| 20260505223533 | 66 | 214 | 2.6 | 5.2 | 0.00 | 0.28 | 0.03 | 64 | 1014.1 |
| 20260505223020 | 66 | 226 | 0.0 | 3.5 | 0.00 | 0.28 | 0.03 | 64 | 1014.1 |
| 20260505222509 | 67 | 221 | 0.9 | 3.5 | 0.00 | 0.28 | 0.03 | 64 | 1014.1 |
| 20260505222059 | 67 | 215 | 0.9 | 2.6 | 0.00 | 0.28 | 0.03 | 63 | 1014.2 |
| 20260505221548 | 67 | 209 | 0.9 | 2.6 | 0.00 | 0.28 | 0.03 | 66 | 1014.2 |
| 20260505221022 | 67 | 215 | 0.0 | 2.6 | 0.00 | 0.28 | 0.03 | 63 | 1014.3 |
| 20260505220512 | 67 | 215 | 0.0 | 1.7 | 0.00 | 0.28 | 0.03 | 66 | 1014.3 |
| 20260505220107 | 66 | 215 | 0.9 | 2.6 | 0.00 | 0.28 | 0.03 | 65 | 1014.3 |
| 20260505215549 | 66 | 215 | 0.9 | 2.6 | 0.00 | 0.28 | 0.03 | 66 | 1014.3 |
| 20260505215038 | 66 | 219 | 0.0 | 2.6 | 0.00 | 0.28 | 0.03 | 68 | 1014.4 |
| 20260505214535 | 65 | 224 | 0.0 | 2.6 | 0.00 | 0.28 | 0.03 | 69 | 1014.3 |
| 20260505214014 | 65 | 213 | 0.0 | 0.0 | 0.00 | 0.28 | 0.03 | 68 | 1014.4 |
| 20260505213501 | 64 | 213 | 0.0 | 2.6 | 0.00 | 0.28 | 0.03 | 71 | 1014.5 |
| 20260505213101 | 63 | 213 | 0.0 | 2.6 | 0.00 | 0.28 | 0.03 | 71 | 1014.5 |
| 20260505212540 | 63 | 216 | 0.0 | 2.6 | 0.00 | 0.28 | 0.03 | 71 | 1014.5 |
| 20260505212028 | 63 | 216 | 0.9 | 2.6 | 0.00 | 0.28 | 0.03 | 70 | 1014.6 |
| 20260505211517 | 63 | 216 | 0.9 | 2.6 | 0.00 | 0.28 | 0.03 | 71 | 1014.5 |
| 20260505211100 | 63 | 217 | 0.0 | 3.5 | 0.00 | 0.28 | 0.03 | 73 | 1014.6 |
| 20260505210544 | 62 | 217 | 0.9 | 4.3 | 0.00 | 0.28 | 0.03 | 73 | 1014.6 |
| 20260505210032 | 62 | 217 | 0.0 | 4.3 | 0.00 | 0.28 | 0.03 | 73 | 1014.5 |
| 20260505205523 | 62 | 216 | 0.9 | 4.3 | 0.00 | 0.28 | 0.03 | 74 | 1014.5 |
| 20260505205007 | 62 | 212 | 1.7 | 7.8 | 0.00 | 0.28 | 0.03 | 74 | 1014.7 |
| 20260505204606 | 62 | 236 | 2.6 | 7.8 | 0.00 | 0.28 | 0.03 | 74 | 1014.6 |
| 20260505204047 | 62 | 204 | 0.9 | 7.0 | 0.00 | 0.28 | 0.03 | 75 | 1014.6 |
| 20260505203535 | 62 | 174 | 0.9 | 5.2 | 0.00 | 0.28 | 0.03 | 74 | 1014.6 |
| 20260505203023 | 62 | 200 | 1.7 | 7.0 | 0.00 | 0.28 | 0.03 | 74 | 1014.7 |
| 20260505202510 | 63 | 216 | 2.6 | 7.0 | 0.00 | 0.28 | 0.03 | 73 | 1014.6 |
| 20260505202101 | 63 | 215 | 0.9 | 6.1 | 0.00 | 0.28 | 0.03 | 73 | 1014.6 |
| 20260505201549 | 63 | 214 | 0.9 | 6.1 | 0.00 | 0.28 | 0.03 | 73 | 1014.7 |
| 20260505201026 | 63 | 201 | 1.7 | 4.3 | 0.00 | 0.28 | 0.03 | 72 | 1014.7 |
| 20260505200514 | 63 | 207 | 1.7 | 5.2 | 0.00 | 0.28 | 0.03 | 72 | 1014.7 |
| 20260505200004 | 63 | 213 | 0.9 | 5.2 | 0.00 | 0.28 | 0.03 | 72 | 1014.7 |
| 20260505195557 | 64 | 197 | 0.9 | 5.2 | 0.00 | 0.28 | 0.03 | 71 | 1014.8 |
| 20260505195041 | 64 | 153 | 0.9 | 2.6 | 0.00 | 0.28 | 0.03 | 69 | 1014.8 |
| 20260505194535 | 64 | 154 | 0.0 | 4.3 | 0.00 | 0.28 | 0.03 | 69 | 1014.8 |
| 20260505194018 | 64 | 184 | 0.0 | 4.3 | 0.00 | 0.28 | 0.03 | 69 | 1014.8 |
| 20260505193506 | 64 | 191 | 0.9 | 5.2 | 0.00 | 0.28 | 0.03 | 69 | 1014.7 |
| 20260505193059 | 64 | 206 | 0.0 | 5.2 | 0.00 | 0.28 | 0.03 | 68 | 1014.7 |
| 20260505192544 | 64 | 125 | 0.0 | 2.6 | 0.00 | 0.28 | 0.03 | 69 | 1014.8 |
| 20260505192034 | 64 | 125 | 0.0 | 4.3 | 0.00 | 0.28 | 0.03 | 67 | 1014.8 |
| 20260505191527 | 64 | 126 | 1.7 | 4.3 | 0.00 | 0.28 | 0.03 | 68 | 1014.8 |
| 20260505191101 | 64 | 147 | 0.9 | 4.3 | 0.00 | 0.28 | 0.03 | 70 | 1014.8 |
| 20260505190551 | 63 | 147 | 0.0 | 4.3 | 0.00 | 0.28 | 0.03 | 71 | 1014.8 |
| 20260505190037 | 62 | 211 | 0.9 | 2.6 | 0.00 | 0.28 | 0.03 | 74 | 1014.8 |
| 20260505185522 | 61 | 216 | 0.0 | 2.6 | 0.00 | 0.28 | 0.03 | 72 | 1014.7 |
| 20260505185010 | 61 | 216 | 1.7 | 2.6 | 0.00 | 0.28 | 0.03 | 72 | 1014.7 |
| 20260505184611 | 61 | 216 | 0.0 | 3.5 | 0.00 | 0.28 | 0.03 | 72 | 1014.7 |
| 20260505184052 | 61 | 211 | 1.7 | 3.5 | 0.00 | 0.28 | 0.03 | 73 | 1014.6 |
| 20260505183537 | 61 | 198 | 0.0 | 1.7 | 0.00 | 0.28 | 0.03 | 75 | 1014.6 |
| 20260505183028 | 60 | 197 | 0.0 | 0.9 | 0.00 | 0.28 | 0.03 | 77 | 1014.7 |
| 20260505182513 | 60 | 197 | 0.0 | 0.9 | 0.00 | 0.28 | 0.03 | 76 | 1014.7 |
| 20260505182001 | 60 | 197 | 0.0 | 2.6 | 0.00 | 0.28 | 0.03 | 77 | 1014.7 |
| 20260505181551 | 60 | 197 | 0.0 | 2.6 | 0.00 | 0.28 | 0.03 | 76 | 1014.7 |
| 20260505181028 | 60 | 192 | 0.0 | 1.7 | 0.00 | 0.28 | 0.03 | 78 | 1014.6 |
| 20260505180516 | 59 | 192 | 0.0 | 1.7 | 0.00 | 0.28 | 0.03 | 78 | 1014.5 |
| 20260505180004 | 59 | 192 | 0.0 | 3.5 | 0.00 | 0.28 | 0.03 | 78 | 1014.5 |
| 20260505175553 | 59 | 192 | 0.0 | 4.3 | 0.00 | 0.28 | 0.03 | 80 | 1014.5 |
| 20260505175044 | 58 | 192 | 0.9 | 4.3 | 0.00 | 0.28 | 0.03 | 80 | 1014.5 |
| 20260505174538 | 58 | 208 | 0.0 | 3.5 | 0.00 | 0.28 | 0.03 | 82 | 1014.5 |
| 20260505174018 | 57 | 207 | 0.9 | 3.5 | 0.00 | 0.28 | 0.03 | 83 | 1014.5 |
| 20260505173506 | 57 | 207 | 0.9 | 4.3 | 0.00 | 0.28 | 0.03 | 83 | 1014.5 |
| 20260505173055 | 57 | 201 | 1.7 | 4.3 | 0.00 | 0.28 | 0.03 | 83 | 1014.5 |
| 20260505172543 | 57 | 199 | 0.9 | 4.3 | 0.00 | 0.28 | 0.03 | 84 | 1014.5 |
| 20260505172031 | 56 | 200 | 0.9 | 3.5 | 0.00 | 0.28 | 0.03 | 85 | 1014.5 |
| 20260505171520 | 56 | 201 | 0.9 | 4.3 | 0.00 | 0.28 | 0.03 | 85 | 1014.5 |
| 20260505171103 | 56 | 200 | 0.9 | 4.3 | 0.00 | 0.28 | 0.03 | 86 | 1014.4 |
| 20260505170546 | 56 | 189 | 1.7 | 4.3 | 0.00 | 0.28 | 0.03 | 86 | 1014.4 |
| 20260505170039 | 56 | 185 | 0.0 | 3.5 | 0.00 | 0.28 | 0.03 | 87 | 1014.4 |
| 20260505165528 | 56 | 185 | 0.9 | 4.3 | 0.00 | 0.28 | 0.03 | 87 | 1014.4 |
| 20260505165011 | 56 | 184 | 1.7 | 4.3 | 0.00 | 0.28 | 0.03 | 88 | 1014.4 |
| 20260505164602 | 55 | 179 | 0.0 | 5.2 | 0.00 | 0.28 | 0.03 | 88 | 1014.5 |
| 20260505164053 | 55 | 187 | 0.9 | 5.2 | 0.00 | 0.28 | 0.03 | 88 | 1014.4 |
| 20260505163539 | 55 | 195 | 0.0 | 5.2 | 0.00 | 0.28 | 0.03 | 89 | 1014.4 |
| 20260505163026 | 55 | 193 | 1.7 | 4.3 | 0.00 | 0.28 | 0.03 | 89 | 1014.4 |
| 20260505162514 | 55 | 197 | 0.0 | 2.6 | 0.00 | 0.28 | 0.03 | 91 | 1014.4 |
| 20260505162002 | 54 | 197 | 0.0 | 3.5 | 0.00 | 0.28 | 0.03 | 91 | 1014.4 |
| 20260505161601 | 54 | 198 | 0.9 | 5.2 | 0.00 | 0.28 | 0.03 | 91 | 1014.4 |
| 20260505161032 | 54 | 197 | 2.6 | 5.2 | 0.00 | 0.28 | 0.03 | 91 | 1014.3 |
| 20260505160518 | 54 | 187 | 0.0 | 2.6 | 0.00 | 0.28 | 0.03 | 91 | 1014.3 |